Barter Island, AK

7:27 AM AKDT on April 20, 2018 (GMT -0800)
Barter Island LRRS

Weather History for PABA - March, 2013

Change the Weather History Date:

Saturday, March 9, 2013

  Actual Average Record
Temperature  
Mean Temperature 6 °F -  
Max Temperature 10 °F -3 °F 19 °F (2017)
Min Temperature 1 °F -17 °F -38 °F (1999)
Degree Days  
Heating Degree Days 60    
Moisture  
Dew Point 4 °F    
Average Humidity 88    
Maximum Humidity 92    
Minimum Humidity 79    
Precipitation  
Precipitation 0.00 in - - ()
Sea Level Pressure  
Sea Level Pressure 29.80 in    
Wind  
Wind Speed 12 mph (SE)    
Max Wind Speed 16 mph    
Max Gust Speed -    
Visibility 7 miles    
Events Snow    
Averages and records for this station are not official NWS values.
T = Trace of Precipitation, MM = Missing Value Source: NWS Daily Summary

Daily Weather History Graph

Daily Weather History Graph

Search for Another Location

Airport or City:

Astronomy

Mar. 09, 2013 Rise Set
Actual Time 7:22 AM AKST 6:09 PM AKST
Civil Twilight 6:21 AM AKST 7:10 PM AKST
Nautical Twilight 5:08 AM AKST 8:23 PM AKST
Astronomical Twilight 3:46 AM AKST 9:47 PM AKST
Moon 6:45 AM AKST (3/9) 3:40 PM AKST (3/9)
Length of Visible Light 12h 49m
Length of Day
10h 46m
Waning Crescent, 5% of the Moon is Illuminated
Mar 9
Waning Crescent
Mar 11
New
Mar 19
First Quarter
Mar 27
Full
Apr 2
Last Quarter

Hourly Weather History & Observations

Time (AKST) Temp. Windchill Dew Point Humidity Pressure Visibility Wind Dir Wind Speed Gust Speed Precip Events Conditions
12:01 AM 1.9 °F -17.5 °F -0.9 °F 88% 29.69 in 9.0 mi SE 16.1 mph - 0.00 in Snow Light Snow
1:01 AM 5.0 °F -13.6 °F 1.9 °F 87% 29.70 in 9.0 mi ESE 16.1 mph - 0.00 in Snow Light Snow
2:01 AM 5.0 °F -12.3 °F 1.4 °F 85% 29.71 in 8.0 mi SE 13.8 mph - 0.00 in Snow Light Snow
2:09 AM 3.2 °F -15.3 °F 1.4 °F 92% 29.71 in 8.0 mi SE 15.0 mph - 0.00 in Snow Light Snow
2:19 AM 3.2 °F -15.3 °F 1.4 °F 92% 29.70 in 8.0 mi SE 15.0 mph - 0.00 in Snow Light Snow
3:01 AM 3.9 °F -13.7 °F 1.9 °F 91% 29.71 in 8.0 mi SE 13.8 mph - 0.00 in Snow Light Snow
4:01 AM 5.0 °F -13.6 °F 1.9 °F 87% 29.71 in 9.0 mi ESE 16.1 mph - 0.00 in Snow Light Snow
5:01 AM 5.0 °F -13.0 °F 1.9 °F 87% 29.70 in 9.0 mi ESE 15.0 mph - 0.00 in Snow Light Snow
6:01 AM 6.1 °F -8.7 °F 3.9 °F 91% 29.72 in 10.0 mi ESE 10.4 mph - 0.00 in Snow Light Snow
7:01 AM 7.0 °F -8.3 °F 5.0 °F 92% 29.72 in 8.0 mi SE 11.5 mph - 0.00 in Snow Light Snow
7:40 AM 10.4 °F -6.6 °F 6.8 °F 85% 29.72 in 7.0 mi ESE 16.1 mph - 0.00 in Snow Light Snow
8:01 AM 10.0 °F -6.5 °F 8.1 °F 92% 29.73 in 8.0 mi SE 15.0 mph - 0.00 in Snow Light Snow
9:01 AM 10.4 °F -3.3 °F 6.8 °F 85% 29.74 in 7.0 mi SE 10.4 mph - 0.00 in Snow Light Snow
9:27 AM 8.6 °F -5.5 °F 6.8 °F 92% 29.74 in 7.0 mi SE 10.4 mph - 0.00 in Snow Light Snow
10:01 AM 8.1 °F -7.7 °F 5.0 °F 87% 29.75 in 9.0 mi SE 12.7 mph - 0.00 in Snow Light Snow
10:52 AM 6.8 °F -3.5 °F 3.2 °F 85% 29.77 in 7.0 mi ESE 5.8 mph - 0.00 in Snow Light Snow
11:01 AM 8.1 °F -3.2 °F 5.0 °F 87% 29.77 in 7.0 mi ESE 6.9 mph - 0.00 in Snow Light Snow
11:58 AM 8.6 °F -1.3 °F 5.0 °F 85% 29.79 in 6.0 mi ESE 5.8 mph - 0.00 in Snow Light Snow
12:01 PM 8.1 °F -3.2 °F 5.0 °F 87% 29.79 in 6.0 mi ESE 6.9 mph - 0.00 in Snow Light Snow
12:49 PM 8.6 °F 0.1 °F 6.8 °F 92% 29.80 in 5.0 mi SE 4.6 mph - 0.00 in Snow Light Snow
1:01 PM 8.6 °F -1.3 °F 6.8 °F 92% 29.81 in 2.5 mi SE 5.8 mph - 0.00 in Snow Light Snow
1:24 PM 8.6 °F -1.3 °F 6.8 °F 92% 29.81 in 4.0 mi ESE 5.8 mph - 0.00 in Snow Light Snow
2:01 PM 10.0 °F -1.9 °F 7.0 °F 87% 29.81 in 5.0 mi SE 8.1 mph - 0.00 in Snow Light Snow
3:01 PM 9.0 °F -0.9 °F 6.1 °F 88% 29.83 in 6.0 mi SE 5.8 mph - 0.00 in Snow Light Snow
3:29 PM 8.6 °F 0.1 °F 5.0 °F 85% 29.83 in 7.0 mi East 4.6 mph - 0.00 in Snow Light Snow
4:01 PM 8.6 °F 0.1 °F 3.2 °F 79% 29.84 in 7.0 mi ESE 4.6 mph - 0.00 in Snow Light Snow
5:01 PM 7.0 °F -4.5 °F 3.9 °F 87% 29.86 in 8.0 mi SE 6.9 mph - 0.00 in Snow Light Snow
6:01 PM 6.8 °F -2.0 °F 3.2 °F 85% 29.88 in 2.5 mi SE 4.6 mph - 0.00 in Snow Light Snow
6:19 PM 6.8 °F -3.5 °F 3.2 °F 85% 29.89 in 1.8 mi SE 5.8 mph - 0.00 in Snow Light Snow
6:30 PM 6.8 °F -3.5 °F 3.2 °F 85% 29.89 in 2.0 mi SE 5.8 mph - 0.00 in Snow Light Snow
6:37 PM 6.8 °F -4.8 °F 3.2 °F 85% 29.89 in 1.5 mi SE 6.9 mph - 0.00 in Snow Light Snow
6:49 PM 6.8 °F -3.5 °F 3.2 °F 85% 29.89 in 2.5 mi SE 5.8 mph - 0.00 in Snow Light Snow
7:01 PM 6.8 °F -4.8 °F 3.2 °F 85% 29.90 in 3.0 mi SE 6.9 mph - 0.00 in Snow Light Snow
8:01 PM 6.1 °F -5.6 °F 3.0 °F 87% 29.91 in 8.0 mi ESE 6.9 mph - 0.00 in Snow Light Snow
9:01 PM 6.1 °F -4.3 °F 3.0 °F 87% 29.93 in 9.0 mi ESE 5.8 mph - 0.00 in Snow Light Snow
10:01 PM 6.1 °F -5.6 °F 3.0 °F 87% 29.95 in 9.0 mi ESE 6.9 mph - 0.00 in Snow Light Snow
11:01 PM 9.0 °F -7.9 °F 6.1 °F 88% 29.97 in 9.0 mi East 15.0 mph - 0.00 in Snow Light Snow